Location: Newark
(38.8667°N, 6.9667°W)
Time: 08:00:44
(UTC+00:00)

ISS - Visible Passes

Search period start: 23 October 2019 00:00
Search period end: 02 November 2019 00:00
Orbit: 411 x 421 km, 51.6° (Epoch: 23 October)

Date Brightness Start Highest point End Pass type
(mag) Time Alt. Az. Time Alt. Az. Time Alt. Az.
23 Oct -0.9 05:33:43 10° S 05:36:00 17° SE 05:38:19 10° E visible
25 Oct -3.0 05:32:32 13° SSW 05:35:23 52° SE 05:38:39 10° ENE visible
26 Oct -2.0 04:46:50 28° SE 04:46:54 28° SE 04:49:51 10° ENE visible
26 Oct -2.8 06:20:31 10° W 06:23:35 32° NNW 06:26:39 10° NE visible
27 Oct -3.5 05:33:49 34° W 05:34:55 52° NW 05:38:13 10° NE visible
28 Oct -2.1 04:47:42 33° NE 04:47:42 33° NE 04:49:41 10° NE visible
28 Oct -1.9 06:21:06 10° WNW 06:23:26 17° NNW 06:25:45 10° NNE visible
29 Oct -2.3 05:34:21 23° NW 05:34:37 23° NNW 05:37:24 10° NNE visible
30 Oct -1.3 04:47:58 17° NNE 04:47:58 17° NNE 04:49:00 10° NE visible
30 Oct -1.4 06:22:13 10° NNW 06:23:24 11° NNW 06:24:35 10° N visible
31 Oct -1.5 05:34:23 14° NNW 05:34:29 14° NNW 05:36:21 10° NNE visible
01 Nov -0.8 04:47:50 11° NNE 04:47:50 11° NNE 04:48:01 10° NNE visible
